Regional Weather Roundup
Issued by NWS

Home | Current Version | Previous Version | Graphics & Text | Print | Product List | Glossary On
Versions: 1 2 3 4 5 6 7 8 9 10 11 12 13 14 15 16 17 18 19 20 21 22 23 24 25 26 27 28 29 30 31 32 33 34 35 36 37 38 39 40 41 42 43 44 45 46 47 48 49 50
000
ASUS43 KDMX 011307
RWRIA

WEATHER ROUNDUP FOR IOWA
NATIONAL WEATHER SERVICE DES MOINES IA
800 AM CDT SAT AUG 01 2015

NOTE: "FAIR" INDICATES FEW OR NO CLOUDS BELOW 12,000 FEET WITH NO
SIGNIFICANT WEATHER AND/OR OBSTRUCTIONS TO VISIBILITY.

* - THESE STATIONS ARE NOT NWS STATIONS...THUS NOT UNDER NWS
QUALITY CONTROL.  THEY ALSO DO NOT REPORT WEATHER SUCH
AS PRECIPITATION OR FOG.

IAZ001>003-012>014-020>022-031>034-043>046-011400-
   NORTHWEST IOWA

CITY           SKY/WX    TMP DP  RH WIND       PRES   REMARKS
CARROLL *      SUNNY     72  68  88 CALM      30.04S
CHEROKEE *     MOSUNNY   66  66 100 SW3       30.04R
DENISON *      SUNNY     66  64  94 CALM      30.04S
LE MARS *      SUNNY     68  66  94 SW8       30.04S
ORANGE CITY *  SUNNY     66  64  94 S7        30.04R
SHELDON *      SUNNY     68  64  88 CALM      30.03R
SIOUX CITY     CLOUDY    67  64  90 W3        30.05R
SPENCER        SUNNY     69  63  81 CALM      30.04R
STORM LAKE *   SUNNY     70  68  94 SW9       30.05R
$$

IAZ055>058-069>071-079>083-090>094-011400-
   SOUTHWEST IOWA

CITY           SKY/WX    TMP DP  RH WIND       PRES   REMARKS
ATLANTIC *     SUNNY     66  66 100 CALM      30.06S
AUDUBON *      SUNNY     66  64  94 CALM      30.07R
CLARINDA *     SUNNY     68  68 100 CALM      30.07S
COUNCIL BLFS * SUNNY     66  66 100 N5        30.06R
CRESTON *      SUNNY     72  66  83 SE3       30.08S
HARLAN  *      SUNNY     64  64 100 CALM      30.09S
LAMONI         SUNNY     73  66  78 SE7       30.06R
SHENANDOAH *   SUNNY     70  68  94 CALM      30.06S
$$

IAZ047>049-059>061-072>074-084-011400-
   CENTRAL IOWA

CITY           SKY/WX    TMP DP  RH WIND       PRES   REMARKS
AMES           SUNNY     69  66  90 SW5       30.03R
ANKENY *       SUNNY     70  70 100 CALM      30.04S
CHARITON *     SUNNY     70  66  88 S3        30.06R
DES MOINES     PTSUNNY   73  66  78 SW5       30.04R
GRINNELL*      SUNNY     70  64  83 SW7       30.04S
KNOXVILLE *    SUNNY     70  64  83 SW8       30.04R
MARSHALLTOWN   SUNNY     69  65  86 SW7       30.02S
PELLA *        SUNNY     72  68  88 SW3       30.05R
PERRY *          N/A     72  70  94 CALM      30.04S
$$

IAZ004>006-015-016-023>025-035-036-011400-
   NORTH CENTRAL IOWA

CITY           SKY/WX    TMP DP  RH WIND       PRES   REMARKS
ALGONA *       SUNNY     68  63  83 SW7       30.03R
CLARION *      SUNNY     66  63  88 SW6       30.03R
ESTHERVILLE    SUNNY     68  63  84 SW7       30.03R
FORT DODGE *   SUNNY     68  63  83 SW6       30.04S
MASON CITY     SUNNY     72  63  73 W16       30.03R
FOREST CITY *  SUNNY     64  63  94 CALM      30.02R
IOWA FALLS *     N/A     70  64  83 SW9       30.04R
$$

IAZ007>011-017>019-026>030-037>042-050>054-066-011400-
   NORTHEAST IOWA

CITY           SKY/WX    TMP DP  RH WIND       PRES   REMARKS
CEDAR RAPIDS   SUNNY     65  64  97 CALM      30.02S
CHARLES CITY * SUNNY     68  64  88 W7        30.01S
CLINTON *      SUNNY     64  61  88 W3        30.04S
DECORAH *      SUNNY     66  61  82 CALM      29.99S
DUBUQUE        SUNNY     64  60  87 SW5       30.02S
MONTICELLO *   SUNNY     66  61  82 CALM      30.01S
OELWEIN *      SUNNY     66  63  88 S6        30.02R
WATERLOO       SUNNY     69  62  78 SW9       30.00R
$$

IAZ064-065-067-068-078-011400-
   EAST CENTRAL IOWA

CITY           SKY/WX    TMP DP  RH WIND       PRES   REMARKS
DAVENPORT      SUNNY     68  63  84 CALM      30.03S
IOWA CITY      SUNNY     68  62  81 CALM      30.04R
MT. PLEASANT * SUNNY     72  64  78 SW3       30.05S
MUSCATINE *    SUNNY     68  61  77 S3        30.03S
QUAD CITIES    SUNNY     68  61  78 CALM      30.03R
$$

IAZ062-063-075>077-085>089-095>099-011400-
   SOUTHEAST IOWA

CITY           SKY/WX    TMP DP  RH WIND       PRES   REMARKS
BURLINGTON     SUNNY     69  64  84 SW3       30.04S
FAIRFIELD *    SUNNY     70  66  88 SW5       30.05R
FORT MADISON * SUNNY     72  66  83 CALM      30.06R
KEOKUK *       SUNNY     72  68  88 CALM      30.05R
OSKALOOSA *      N/A     68  66  94 S3        30.05R
CENTERVILLE *  SUNNY     72  66  83 S6        30.08R
OTTUMWA        SUNNY     70  67  90 S6        30.03R
WASHINGTON *   SUNNY     68  64  88 SW5       30.05S
$$

ABBREVIATIONS USED IN REMARKS
   TC - TEMPERATURES IN CELSIUS
  WCI - WIND CHILL INDEX
   HX - HEAT INDEX
  VSB - VISIBILITY
$$




USA.gov is the U.S. government's official web portal to all federal, state and local government web resources and services.